Flag for Japan Weather past 2 weeks in Hamamatsu, Japan

Now
67 °F

Mild.


Feels Like: 67 °F
Forecast: 58 / 78 °F
Wind: 5 mph from Northwest

Location: Omaezaki

Current Time: Sep 22, 2014 at 7:31:31 AM

Latest Report: Sep 22, 2014 at 6:00 AM


Visibility: 13 mi

Pressure: 30.06 "Hg

Humidity: 66%

Dew point: 56 °F

Location of HamamatsuLocation

Historic Weather in Hamamatsu — Graph

°F

Hamamatsu temperature yesterday

Maximum temperature yesterday: 76 °F (at 3:00 PM)
Minimum temperature yesterday: 66 °F (at 2:00 AM)
Average temperature yesterday: 71 °F

Past Weeks' High & Low Weather Summary

 TemperatureHumidityPressure
High83 °F (Sep 10, 12:00 PM)99% (Sep 7, 6:00 AM)30.06 "Hg (Sep 7, 6:00 AM)
Low65 °F (Sep 22, 1:00 AM)46% (Sep 21, 4:00 PM)29.59 "Hg (Sep 9, 1:00 AM)
Average74 °F76%29.85 "Hg
* Reported Sep 7 6:00 AM — Sep 22 6:00 AM, Hamamatsu, Weather by CustomWeather, © 2014

Note: Actual official high and low records may vary slightly from our data, if they occured in-between our weather recording intervals... More about our weather records

Advertising

Hamamatsu weather history for previous 24 hours

 ConditionsComfort  
Time TempWeatherWind HumidityBarometerVisibility
6:00 AM
Sep 22
67 °FMild.5 mph66%30.06 "Hg12 mi
5:00 AM68 °FMild.6 mph67%30.05 "Hg12 mi
4:00 AM67 °FMild.6 mph71%30.04 "Hg12 mi
3:00 AM67 °FMild.5 mph70%30.04 "Hg12 mi
2:00 AM66 °FMild.5 mph72%30.04 "Hg12 mi
1:00 AM65 °FMild.3 mph80%30.05 "Hg12 mi
12:00 AM68 °FMild.3 mph71%30.05 "Hg12 mi
11:00 PM
Sep 21
67 °FFog.1 mph76%30.06 "Hg2 mi
10:00 PM67 °FMild.2 mph74%30.06 "Hg12 mi
9:00 PM70 °FMild.3 mph66%30.06 "Hg12 mi
8:00 PM71 °FMild.5 mph62%30.05 "Hg12 mi
7:00 PM71 °FMild.3 mph60%30.04 "Hg12 mi
6:00 PM72 °FMild.6 mph59%30.02 "Hg12 mi
5:00 PM74 °FMild.7 mph53%30.02 "Hg12 mi
4:00 PM75 °FMild.8 mph46%30.00 "Hg12 mi
3:00 PM76 °FMild.8 mph54%30.00 "Hg12 mi
2:00 PM76 °FMild.9 mph54%30.00 "Hg12 mi
1:00 PM76 °FMild.9 mph47%30.01 "Hg12 mi
12:00 PM76 °FMild.7 mph48%30.03 "Hg12 mi
11:00 AM74 °FMild.6 mph55%30.03 "Hg12 mi
10:00 AM73 °FMild.6 mph56%30.04 "Hg12 mi
9:00 AM72 °FMild.7 mph56%30.06 "Hg12 mi
8:00 AM69 °FMild.9 mph61%30.04 "Hg12 mi
7:00 AM68 °FMild.8 mph62%30.03 "Hg12 mi
Weather by CustomWeather, © 2014

See weather overviewHow to use our weather pages